Weather History for Grand Marais Airport, MN

Change the Weather History Date:

Sunday, August 4, 2013

  Actual Average Record
Temperature  
Mean Temperature 52 °F -  
Max Temperature 66 °F 71 °F 82 °F (2001)
Min Temperature 37 °F 51 °F 37 °F (2013)
Degree Days  
Heating Degree Days 14    
Growing Degree Days 2 (Base 50)    
Moisture  
Dew Point 42 °F    
Average Humidity 68    
Maximum Humidity 93    
Minimum Humidity 42    
Precipitation  
Precipitation 0.00 in - - ()
Sea Level Pressure  
Sea Level Pressure 30.19 in    
Wind  
Wind Speed 3 mph (SW)    
Max Wind Speed 9 mph    
Max Gust Speed 16 mph    
Visibility 10 miles    
Events      
Averages and records for this station are not official NWS values.
T = Trace of Precipitation, MM = Missing Value Source: NWS Daily Summary

Daily Weather History Graph

Daily Weather History Graph

Search for Another Location

Airport:

Trip Planner

Search our weather history database for the weather conditions in past years. The results will help you decide how hot, cold, wet, or windy it might be!

Date:

Astronomy

Aug. 04, 2013 Rise Set
Actual Time 5:42 AM CDT 8:31 PM CDT
Civil Twilight 5:06 AM CDT 9:07 PM CDT
Nautical Twilight 4:20 AM CDT 9:52 PM CDT
Astronomical Twilight 3:26 AM CDT 10:46 PM CDT
Moon 3:42 AM CDT (8/4) 6:54 PM CDT (8/4)
Length of Visible Light 16h 00m
Length of Day
14h 49m
Waning Crescent, 4% of the Moon is Illuminated
Aug 4
Waning Crescent
Aug 6
New
Aug 14
First Quarter
Aug 20
Full
Aug 28
Last Quarter

Hourly Weather History & Observations

Time (CDT) Temp. Windchill Dew Point Humidity Pressure Visibility Wind Dir Wind Speed Gust Speed Precip Events Conditions
12:14 AM 44.6 °F 40.7 °F 41.0 °F 87% 30.22 in 10.0 mi NNW 6.9 mph - N/A   Clear
12:34 AM 48.2 °F - 42.8 °F 82% 30.22 in 10.0 mi NNW 5.8 mph - N/A   Clear
12:53 AM 48.2 °F - 42.8 °F 82% 30.23 in 10.0 mi NNW 3.5 mph - N/A   Clear
1:14 AM 46.4 °F - 42.8 °F 87% 30.23 in 10.0 mi Calm Calm - N/A   Clear
1:34 AM 46.4 °F - 42.8 °F 87% 30.24 in 10.0 mi Calm Calm - N/A   Clear
1:53 AM 46.4 °F - 42.8 °F 87% 30.24 in 7.0 mi Calm Calm - N/A   Clear
2:14 AM 44.6 °F 41.4 °F 42.8 °F 93% 30.24 in 10.0 mi WNW 5.8 mph - N/A   Clear
2:34 AM 44.6 °F - 39.2 °F 81% 30.24 in 10.0 mi Calm Calm - N/A   Clear
2:53 AM 42.8 °F - 39.2 °F 87% 30.24 in 10.0 mi Calm Calm - N/A   Clear
3:13 AM 42.8 °F - 39.2 °F 87% 30.24 in 10.0 mi Calm Calm - N/A   Clear
3:33 AM 42.8 °F - 39.2 °F 87% 30.24 in 7.0 mi Calm Calm - N/A   Clear
3:53 AM 42.8 °F - 39.2 °F 87% 30.24 in 7.0 mi Calm Calm - N/A   Clear
4:14 AM 39.2 °F - 35.6 °F 87% 30.25 in 10.0 mi Calm Calm - N/A   Clear
4:34 AM 39.2 °F 35.9 °F 37.4 °F 93% 30.24 in 10.0 mi WNW 4.6 mph - N/A   Clear
4:54 AM 37.4 °F 34.9 °F 35.6 °F 93% 30.24 in 10.0 mi NW 3.5 mph - N/A   Clear
5:13 AM 39.2 °F - 35.6 °F 87% 30.23 in 10.0 mi Calm Calm - N/A   Clear
5:33 AM 37.4 °F 34.9 °F 35.6 °F 93% 30.23 in 10.0 mi NNW 3.5 mph - N/A   Clear
5:54 AM 37.4 °F 33.8 °F 35.6 °F 93% 30.23 in 10.0 mi North 4.6 mph - N/A   Clear
6:13 AM 37.4 °F 34.9 °F 33.8 °F 87% 30.23 in 10.0 mi North 3.5 mph - N/A   Clear
6:33 AM 41.0 °F 39.0 °F 37.4 °F 87% 30.23 in 10.0 mi NNW 3.5 mph - N/A   Clear
6:53 AM 44.6 °F - 41.0 °F 87% 30.24 in 10.0 mi Calm Calm - N/A   Clear
7:14 AM 48.2 °F - 44.6 °F 87% 30.24 in 10.0 mi Calm Calm - N/A   Clear
7:34 AM 53.6 °F - 46.4 °F 77% 30.24 in 10.0 mi Calm Calm - N/A   Clear
7:54 AM 57.2 °F - 48.2 °F 72% 30.24 in 10.0 mi Calm Calm - N/A   Scattered Clouds
8:13 AM 59.0 °F - 48.2 °F 67% 30.24 in 10.0 mi Calm Calm - N/A   Mostly Cloudy
8:34 AM 60.8 °F - 46.4 °F 59% 30.25 in 10.0 mi Calm Calm - N/A   Mostly Cloudy
8:53 AM 59.0 °F - 48.2 °F 67% 30.25 in 10.0 mi Calm Calm - N/A   Mostly Cloudy
9:13 AM 60.8 °F - 46.4 °F 59% 30.25 in 10.0 mi Calm Calm - N/A   Scattered Clouds
9:34 AM 62.6 °F - 42.8 °F 48% 30.25 in 10.0 mi West 3.5 mph - N/A   Clear
9:53 AM 62.6 °F - 44.6 °F 52% 30.25 in 10.0 mi Calm Calm - N/A   Clear
10:13 AM 62.6 °F - 42.8 °F 48% 30.25 in 10.0 mi West 3.5 mph - N/A   Scattered Clouds
10:33 AM 62.6 °F - 44.6 °F 52% 30.24 in 10.0 mi West 3.5 mph - N/A   Clear
10:54 AM 62.6 °F - 44.6 °F 52% 30.24 in 10.0 mi Calm Calm - N/A   Scattered Clouds
11:14 AM 62.6 °F - 42.8 °F 48% 30.24 in 10.0 mi Calm Calm - N/A   Scattered Clouds
11:33 AM 64.4 °F - 42.8 °F 45% 30.23 in 10.0 mi West 3.5 mph - N/A   Scattered Clouds
11:53 AM 62.6 °F - 46.4 °F 55% 30.23 in 10.0 mi Calm Calm - N/A   Mostly Cloudy
12:14 PM 66.2 °F - 42.8 °F 43% 30.22 in 10.0 mi Calm Calm - N/A   Scattered Clouds
12:33 PM 62.6 °F - 44.6 °F 52% 30.22 in 10.0 mi Calm Calm - N/A   Mostly Cloudy
12:53 PM 62.6 °F - 46.4 °F 55% 30.21 in 10.0 mi Calm Calm - N/A   Mostly Cloudy
1:13 PM 64.4 °F - 46.4 °F 52% 30.20 in 10.0 mi Calm Calm - N/A   Scattered Clouds
1:33 PM 66.2 °F - 46.4 °F 49% 30.20 in 10.0 mi South 6.9 mph - N/A   Scattered Clouds
1:53 PM 62.6 °F - 44.6 °F 52% 30.21 in 10.0 mi SSW 4.6 mph - N/A   Mostly Cloudy
2:14 PM 62.6 °F - 44.6 °F 52% 30.20 in 10.0 mi South 6.9 mph - N/A   Mostly Cloudy
2:33 PM 66.2 °F - 44.6 °F 46% 30.19 in 10.0 mi South 8.1 mph - N/A   Scattered Clouds
2:53 PM 66.2 °F - 44.6 °F 46% 30.19 in 10.0 mi South 8.1 mph - N/A   Scattered Clouds
3:14 PM 62.6 °F - 42.8 °F 48% 30.18 in 10.0 mi South 9.2 mph - N/A   Mostly Cloudy
3:33 PM 64.4 °F - 42.8 °F 45% 30.18 in 10.0 mi South 9.2 mph - N/A   Mostly Cloudy
3:53 PM 66.2 °F - 44.6 °F 46% 30.17 in 10.0 mi South 8.1 mph - N/A   Scattered Clouds
4:14 PM 64.4 °F - 42.8 °F 45% 30.16 in 10.0 mi South 8.1 mph - N/A   Clear
4:33 PM 64.4 °F - 42.8 °F 45% 30.16 in 10.0 mi South 5.8 mph - N/A   Scattered Clouds
4:53 PM 64.4 °F - 42.8 °F 45% 30.15 in 10.0 mi SSW 8.1 mph - N/A   Scattered Clouds
5:14 PM 64.4 °F - 41.0 °F 42% 30.15 in 10.0 mi South 9.2 mph - N/A   Clear
5:34 PM 64.4 °F - 42.8 °F 45% 30.15 in 10.0 mi South 5.8 mph - N/A   Clear
5:53 PM 62.6 °F - 42.8 °F 48% 30.14 in 10.0 mi SSW 8.1 mph - N/A   Clear
6:14 PM 60.8 °F - 41.0 °F 48% 30.13 in 10.0 mi South 5.8 mph 16.1 mph N/A   Clear
6:34 PM 62.6 °F - 41.0 °F 45% 30.13 in 10.0 mi South 6.9 mph - N/A   Clear
6:53 PM 60.8 °F - 42.8 °F 52% 30.12 in 10.0 mi Calm Calm - N/A   Clear
7:14 PM 60.8 °F - 41.0 °F 48% 30.12 in 10.0 mi South 4.6 mph - N/A   Clear
7:33 PM 57.2 °F - 41.0 °F 55% 30.11 in 10.0 mi South 3.5 mph - N/A   Clear
7:53 PM 55.4 °F - 42.8 °F 63% 30.11 in 10.0 mi Calm Calm - N/A   Clear
8:14 PM 53.6 °F - 42.8 °F 67% 30.10 in 10.0 mi SSW 3.5 mph - N/A   Clear
8:34 PM 51.8 °F - 42.8 °F 71% 30.10 in 10.0 mi Calm Calm - N/A   Clear
8:53 PM 50.0 °F - 42.8 °F 76% 30.10 in 10.0 mi South 3.5 mph - N/A   Clear
9:13 PM 48.2 °F - 42.8 °F 82% 30.10 in 10.0 mi Calm Calm - N/A   Clear
9:34 PM 48.2 °F - 42.8 °F 82% 30.09 in 10.0 mi Calm Calm - N/A   Clear
9:54 PM 46.4 °F - 42.8 °F 87% 30.09 in 10.0 mi Calm Calm - N/A   Clear
10:13 PM 46.4 °F - 42.8 °F 87% 30.09 in 10.0 mi Calm Calm - N/A   Clear
10:33 PM 44.6 °F - 41.0 °F 87% 30.08 in 10.0 mi Calm Calm - N/A   Scattered Clouds
10:54 PM 44.6 °F - 41.0 °F 87% 30.08 in 10.0 mi Calm Calm - N/A   Scattered Clouds
11:13 PM 44.6 °F - 41.0 °F 87% 30.07 in 10.0 mi Calm Calm - N/A   Clear
11:33 PM 46.4 °F - 41.0 °F 81% 30.07 in 10.0 mi Calm Calm - N/A   Scattered Clouds
11:53 PM 46.4 °F - 42.8 °F 87% 30.06 in 10.0 mi Calm Calm - N/A   Scattered Clouds